EW3845 Weather Reports


Display with metric or nautical units.
time (UTC)temp
F
wind
direction
speed
MPH
gust
MPH
rain 1hr
in
rain 24hr
in
rain mn
in
humidity
%
barometer
mb
20260906023059 52 360 0.0 0.0 0.00 0.00 0.00 90 1026.3
20260906021603 52 360 0.0 0.0 0.00 0.00 0.00 90 1026.3
20260906020105 52 360 0.0 0.0 0.00 0.00 0.00 89 1026.1
20260906014556 52 360 0.0 0.0 0.00 0.00 0.00 89 1026.4
20260906013104 52 360 0.0 0.0 0.00 0.00 0.00 89 1026.3
20260906011554 53 360 0.0 0.0 0.00 0.00 0.00 89 1026.2
20260906010054 53 360 0.0 0.0 0.00 0.00 0.00 89 1025.9
20260906004552 53 360 0.0 0.0 0.00 0.00 0.00 88 1026.0
20260906003051 53 360 0.0 0.0 0.00 0.00 0.00 88 1026.1
20260906001550 53 360 0.0 0.0 0.00 0.00 0.00 88 1026.1
20260906000100 53 360 0.0 0.0 0.00 0.00 0.00 88 1026.2
20260905234556 53 360 0.0 0.0 0.00 0.00 0.00 87 1026.2
20260905233047 54 360 0.0 0.0 0.00 0.00 0.00 87 1026.2
20260905231545 54 360 0.0 0.0 0.00 0.00 0.00 87 1026.0
20260905230044 54 360 0.0 0.0 0.00 0.00 0.00 86 1026.0
20260905224542 54 360 0.0 0.0 0.00 0.00 0.00 86 1026.0
20260905223045 54 360 0.0 0.0 0.00 0.00 0.00 85 1025.9
20260905221538 55 360 0.0 0.0 0.00 0.00 0.00 84 1025.7
20260905220038 55 360 0.0 0.0 0.00 0.00 0.00 84 1025.7
20260905214533 56 360 0.0 0.0 0.00 0.00 0.00 83 1025.7
20260905213031 56 360 0.0 0.0 0.00 0.00 0.00 83 1025.5
20260905211529 56 360 0.0 0.0 0.00 0.00 0.00 82 1025.4
20260905210043 57 360 0.0 0.0 0.00 0.00 0.00 81 1025.3
20260905204534 58 360 0.0 0.0 0.00 0.00 0.00 80 1025.2
20260905203023 58 360 0.0 0.0 0.00 0.00 0.00 79 1025.0
20260905201521 58 360 0.0 0.0 0.00 0.00 0.00 79 1025.1
20260905200024 59 360 0.0 0.0 0.00 0.00 0.00 77 1025.0
20260905194518 60 360 0.0 0.0 0.00 0.00 0.00 76 1024.8
20260905193019 61 360 0.0 0.0 0.00 0.00 0.00 75 1024.8
20260905191520 62 360 0.0 0.0 0.00 0.00 0.00 73 1024.7
20260905190019 63 360 0.0 0.0 0.00 0.00 0.00 73 1024.6
20260905184519 63 360 0.0 0.0 0.00 0.00 0.00 71 1024.5
20260905183014 64 360 0.0 0.0 0.00 0.00 0.00 70 1024.3
20260905181516 65 360 0.0 0.0 0.00 0.00 0.00 70 1024.1
20260905180009 65 360 0.0 0.0 0.00 0.00 0.00 70 1023.9
20260905174518 66 360 0.0 0.0 0.00 0.00 0.00 69 1023.9
20260905173007 67 360 0.0 0.0 0.00 0.00 0.00 67 1023.7
20260905171505 67 360 0.0 0.0 0.00 0.00 0.00 65 1023.4
20260905170005 68 258 0.0 0.0 0.00 0.02 0.00 64 1023.4
20260905164503 69 360 0.0 0.0 0.00 0.02 0.00 63 1023.2
20260905163001 69 360 0.0 0.0 0.00 0.02 0.00 63 1023.1
20260905161559 69 360 0.0 0.0 0.00 0.02 0.00 62 1022.8
20260905160109 70 238 0.0 0.0 0.00 0.11 0.00 65 1022.8
20260905154630 70 360 0.0 0.0 0.00 0.11 0.00 63 1022.6
20260905153056 71 360 0.0 0.0 0.00 0.11 0.00 62 1022.5
20260905151555 71 294 0.0 0.0 0.00 0.11 0.00 61 1022.3
20260905144551 70 360 0.0 0.0 0.00 0.11 0.00 63 1022.1
20260905143059 69 360 0.0 0.0 0.00 0.11 0.00 64 1022.1
20260905141548 69 360 0.0 0.0 0.00 0.11 0.00 67 1022.0
20260905140048 69 289 0.0 0.0 0.00 0.11 0.00 66 1021.8
20260905134546 70 360 0.0 0.0 0.00 0.11 0.00 67 1021.8
20260905133046 70 360 0.0 0.0 0.00 0.11 0.00 68 1021.8
20260905131545 70 360 0.0 0.0 0.00 0.11 0.00 67 1021.8
20260905130048 70 291 0.0 0.0 0.00 0.11 0.00 67 1021.8
20260905124542 70 360 0.0 0.0 0.00 0.11 0.00 69 1021.7
20260905123042 70 360 0.0 0.0 0.00 0.11 0.00 67 1021.6
20260905121540 70 298 0.0 0.0 0.00 0.11 0.00 69 1021.5
20260905120048 69 304 0.0 0.0 0.00 0.11 0.00 69 1021.4
20260905114537 69 360 0.0 0.0 0.00 0.11 0.00 72 1021.2
20260905113035 68 360 0.0 0.0 0.00 0.11 0.00 72 1021.4
20260905111538 69 297 0.0 0.0 0.00 0.11 0.00 72 1021.2
20260905110033 69 284 0.0 0.0 0.00 0.11 0.00 71 1021.2
20260905104530 69 296 0.0 0.0 0.00 0.11 0.00 73 1021.1
20260905103029 69 360 0.0 0.0 0.00 0.11 0.00 73 1021.1
20260905101526 67 289 0.0 0.0 0.00 0.11 0.00 77 1020.9
20260905100024 67 306 0.0 0.0 0.00 0.11 0.00 78 1020.9
20260905094537 66 287 0.0 0.0 0.00 0.11 0.00 81 1020.7
20260905093020 66 360 0.0 0.0 0.00 0.11 0.00 80 1020.7
20260905091517 66 261 0.0 0.0 0.00 0.11 0.00 82 1020.6
20260905090016 65 302 0.0 0.0 0.00 0.11 0.00 84 1020.3
20260905084510 64 360 0.0 0.0 0.00 0.11 0.00 85 1020.3
20260905083007 63 293 0.0 0.0 0.00 0.11 0.00 87 1020.1
20260905081505 63 296 0.0 0.0 0.00 0.11 0.00 88 1020.0
20260905080005 62 360 0.0 0.0 0.00 0.11 0.00 89 1019.8
20260905074606 62 292 0.0 0.0 0.00 0.11 0.00 90 1019.8
20260905073110 61 286 0.0 0.0 0.00 0.11 0.00 91 1019.6
20260905071557 61 360 0.0 0.0 0.00 0.11 0.00 91 1019.4
20260905070056 60 360 0.0 0.0 0.00 0.11 0.00 92 1019.1
20260905064553 60 360 0.0 0.0 0.00 0.11 0.00 92 1019.0
20260905063051 60 292 0.0 0.0 0.00 0.11 0.00 93 1018.8
20260905061601 60 292 0.0 0.0 0.00 0.11 0.00 93 1018.6
20260905054555 59 289 0.0 0.0 0.00 0.11 0.00 93 1018.3
20260905053045 59 289 0.0 0.0 0.00 0.11 0.00 93 1018.3
20260905051602 59 289 0.0 0.0 0.00 0.11 0.00 93 1018.2
20260905050043 58 289 0.0 0.0 0.00 0.11 0.00 93 1017.9
20260905044543 58 289 0.0 0.0 0.00 0.11 0.00 93 1017.7
20260905043040 59 289 0.0 0.0 0.00 0.11 0.00 93 1017.6
20260905041540 59 289 0.0 0.0 0.00 0.11 0.00 93 1017.4
20260905040036 59 289 0.0 0.0 0.00 0.11 0.00 93 1017.2
20260905034536 59 289 0.0 0.0 0.00 0.11 0.00 93 1017.1
20260905033034 59 289 0.0 0.0 0.00 0.11 0.00 93 1016.9
20260905031540 59 289 0.0 0.0 0.00 0.11 0.00 94 1017.0
20260905030033 59 289 0.0 0.0 0.00 0.11 0.00 94 1017.0
20260905024554 59 289 0.0 0.0 0.00 0.11 0.00 94 1016.9